Location: Il Ritiro
(43.4167°N, 13.1333°E)
Time: 07:27:58
(UTC+00:00)

Cosmos 2237 - Pass Details

Date: 05 July 2020
Orbit: 844 x 857 km, 70.8° (Epoch: 05 August)

Event Time Altitude Azimuth Distance (km) Brightness Sun altitude
Rises 19:55:28 0° 205° (SSW) 3,408 7.2 -10.0°
Reaches altitude 10° 19:57:54 10° 206° (SSW) 2,478 6.4 -10.3°
Maximum altitude 20:03:36 84° 294° (WNW) 867 4.3 -11.0°
Drops below altitude 10° 20:09:23 10° 24° (NNE) 2,499 7.0 -11.7°
Sets 20:11:51 0° 25° (NNE) 3,440 7.7 -12.0°
